Home   Weather   Firenze   Past weeks

Flag for Italy Past Weather in Firenze, Italy — Yesterday and Last 2 Weeks

Now
88 °F

Passing clouds.


Feels Like: 87 °F
Forecast: 64 / 83 °F
Wind: 6 mph from West

Location: Florence / Peretola

Current Time: Aug 19, 2017 at 1:32:25 pm

Latest Report: Aug 19, 2017 at 12:50 pm


Visibility: N/A

Pressure: 29.95 "Hg

Humidity: 35%

Dew Point: 57 °F

Location of FirenzeLocation

Past Weather in Firenze — Graph

°F

Firenze Temperature Yesterday

Maximum temperature yesterday: 100 °F (at 1:50 pm)
Minimum temperature yesterday: 66 °F (at 6:20 am)
Average temperature yesterday: 84 °F

High & Low Weather Summary for the Past Weeks

 TemperatureHumidityPressure
High102 °F (Aug 4, 2:50 pm)94% (Aug 10, 1:50 pm)30.15 "Hg (Aug 10, 1:50 pm)
Low61 °F (Aug 12, 5:50 am)13% (Aug 5, 2:20 pm)29.80 "Hg (Aug 5, 4:20 pm)
Average81 °F48%29.96 "Hg
* Reported Aug 4 12:20 pm — Aug 19 12:20 pm, Firenze. Weather by CustomWeather, © 2017

Note: Actual official high and low records may vary slightly from our data, if they occured in-between our weather recording intervals... More about our weather records

Advertising

Firenze Weather History for the Previous 24 Hours

Scroll right to see more
 ConditionsComfort  
Time TempWeatherWind HumidityBarometerVisibility
12:20 pm
Sat, Aug 19
86 °FPassing clouds.6 mph38%29.95 "HgN/A
11:50 am86 °FPassing clouds.5 mph40%29.95 "HgN/A
11:20 am81 °FThundershowers. Scattered clouds.2 mph48%29.98 "HgN/A
10:50 am82 °FPassing clouds.3 mph48%29.98 "HgN/A
10:20 am82 °FPassing clouds.3 mph48%29.98 "HgN/A
9:50 am79 °FPassing clouds.2 mph54%29.98 "HgN/A
9:20 am77 °FPassing clouds.1 mph57%29.98 "HgN/A
8:50 am75 °FPassing clouds.1 mph61%29.98 "HgN/A
8:20 am75 °FPassing clouds.1 mph61%29.98 "HgN/A
7:50 am73 °FPassing clouds.1 mph65%29.98 "HgN/A
7:20 am70 °FPassing clouds.2 mph73%29.98 "HgN/A
6:50 am70 °FPassing clouds.1 mph73%29.95 "HgN/A
6:20 am68 °FClear.1 mph78%29.95 "Hg10 mi
5:50 am68 °FClear.1 mph78%29.95 "Hg10 mi
5:20 am70 °FClear.2 mph69%29.95 "Hg10 mi
4:50 am72 °FClear.2 mph65%29.95 "Hg10 mi
4:20 am70 °FClear.3 mph69%29.95 "Hg10 mi
3:50 am72 °FClear.3 mph65%29.95 "Hg10 mi
3:20 am72 °FClear.3 mph65%29.95 "Hg10 mi
2:50 am72 °FClear.2 mph65%29.95 "Hg10 mi
2:20 am72 °FClear.2 mph69%29.95 "Hg10 mi
1:50 am73 °FClear.2 mph65%29.95 "Hg10 mi
1:20 am73 °FClear.2 mph65%29.95 "Hg10 mi
12:50 am75 °FClear.1 mph61%29.95 "Hg10 mi
12:20 am77 °FClear.3 mph61%29.95 "Hg10 mi
11:50 pm
Fri, Aug 18
77 °FClear.No wind61%29.95 "Hg10 mi
11:20 pm81 °FClear.No wind54%29.95 "Hg10 mi
10:50 pm81 °FClear.2 mph51%29.95 "Hg10 mi
10:20 pm84 °FClear.7 mph45%29.95 "Hg10 mi
9:50 pm84 °FClear.8 mph43%29.95 "Hg10 mi
9:20 pm86 °FClear.7 mph38%29.95 "Hg10 mi
8:50 pm88 °FClear.8 mph35%29.92 "Hg10 mi
8:20 pm90 °FClear.9 mph31%29.92 "Hg10 mi
7:50 pm91 °FPassing clouds.8 mph28%29.92 "HgN/A
7:20 pm93 °FPassing clouds.12 mph26%29.92 "HgN/A
6:50 pm95 °FSunny.12 mph25%29.92 "Hg10 mi
6:20 pm95 °FPassing clouds.12 mph26%29.92 "HgN/A
5:50 pm97 °FSunny.12 mph25%29.92 "Hg10 mi
5:20 pm99 °FPassing clouds.9 mph24%29.92 "HgN/A
4:50 pm99 °FPassing clouds.6 mph19%29.92 "HgN/A
4:20 pm100 °FPassing clouds.7 mph20%29.92 "HgN/A
3:20 pm99 °FPassing clouds.6 mph17%29.95 "HgN/A
2:50 pm99 °FSunny.3 mph17%29.95 "Hg10 mi
2:20 pm99 °FSunny.5 mph16%29.98 "Hg10 mi
1:50 pm100 °FSunny.3 mph16%29.98 "Hg10 mi
1:20 pm97 °FSunny.6 mph17%29.98 "Hg10 mi
Weather by CustomWeather, © 2017

See weather overviewHow to use our weather pages